Regional Weather Roundup
Issued by NWS Green Bay, WI

Home | Current Version | Previous Version | Graphics & Text | Print | Product List | Glossary Off
Versions: 1 2 3 4 5 6 7 8 9 10 11 12 13 14 15 16 17 18 19 20 21 22 23 24 25 26 27 28 29 30 31 32 33 34 35 36 37 38 39 40 41 42 43 44 45 46 47 48 49 50

000
ASUS43 KGRB 172300
RWRGRB

NORTH-CENTRAL AND NORTHEAST WISCONSIN REGIONAL WEATHER ROUNDUP
NATIONAL WEATHER SERVICE GREEN BAY WI
500 PM CST TUE JAN 17 2017

WIZ005-009-010>012-018-019-180000-
NORTH CENTRAL WISCONSIN

CITY           SKY/WX    TMP DP  RH WIND       PRES   REMARKS
IRONWOOD       CLEAR     31  25  78 NW3       29.93R
MANITOWISH WTR NOT AVBL
ARBOR VITAE    NOT AVBL
EAGLE RIVER    NOT AVBL
LAND O LAKES   NOT AVBL
RHINELANDER    CLOUDY    39  32  76 CALM      29.89R
PHILLIPS       CLEAR     38  31  75 CALM      29.89R
ANTIGO         NOT AVBL
TOMAHAWK       NOT AVBL
MERRILL        CLOUDY    36  35  99 CALM        N/A
$$

WIZ013-073-180000-
NORTHEAST WISCONSIN

CITY           SKY/WX    TMP DP  RH WIND       PRES   REMARKS
IRON MOUNTAIN  CLOUDY    36  31  82 CALM      29.88R
MARINETTE      NOT AVBL
$$

WIZ017-030-035>037-045-180000-
CENTRAL WISCONSIN

CITY           SKY/WX    TMP DP  RH WIND       PRES   REMARKS
MEDFORD        NOT AVBL
WAUSAU         CLOUDY    35  34  96 W3        29.89R
MOSINEE        CLOUDY    34  34 100 NW3       29.90R FOG
MARSHFIELD     CLOUDY    35  32  88 NW6       29.90R
WISC RAPIDS    CLOUDY    35  35 100 NW5       29.93R FOG
STEVENS POINT  NOT AVBL
WAUPACA        NOT AVBL
SHAWANO        NOT AVBL
CLINTONVILLE   DRIZZLE   34  32  93 N3        29.90R
WAUTOMA        CLOUDY    34  33  96 NW3       29.92R FOG
$$

WIZ038-039-048-051-180000-
FOX VALLEY

CITY           SKY/WX    TMP DP  RH WIND       PRES   REMARKS
NWS GREEN BAY  CLOUDY    35  35 100 NW7       29.90R FOG
APPLETON       FOG       34  34 100 NW5       29.88R VSB 1/4
OSHKOSH        LGT RAIN  34  32  92 NW6       29.90R FOG
FOND DU LAC    CLOUDY    34  32  92 NW6       29.89R FOG
$$

WIZ022-050-052-180000-
EAST CENTRAL WISCONSIN

CITY           SKY/WX    TMP DP  RH WIND       PRES   REMARKS
EPHRAIM        NOT AVBL
WASHINGTON ISL NOT AVBL
STURGEON BAY   MIX PCPN  32  32 100 N10       29.88R VSB 1/4
MANITOWOC      NOT AVBL
SHEBOYGAN      LGT RAIN  34  33  96 NW5       29.88R FOG
$$

LMZ563-521-522-541>543-180000-
LAKESHORE

STATION/POSITION TIME  TEMP    WIND        PRES    VSBY  WAVE
                       AIR SEA DIR/SP/G                  HT/PER
                 (UTC) (F)     (DEG/KT/KT) (MB)    (MI)  (FT/S)
SHEBOYGAN LKSHOR 2200   35     300/  8/ 10 1011.6R
KEWAUNEE LKSHORE 2230   34     330/  6/  9 1010.8R
NORTHPORT PIER   2240   33      20/  6/ 11 1012.2R
SISTER BAY LKSHO 2150   33      30/  8/ 10   N/A
MENOMINEE LKSHOR 2230          350/ 12/ 13 1011.7R
$$




USA.gov is the U.S. government's official web portal to all federal, state and local government web resources and services.